Location: Lawrence Hall of Science
(37.8785°N, 122.2415°W)
Time: 12:32:35
(UTC-07:00)

Cosmos 2151 - Visible Passes

Search period start: 29 March 2015 00:00
Search period end: 08 April 2015 00:00
Orbit: 584 x 606 km, 82.5° (Epoch: 29 March)

Date Brightness Start Highest point End Pass type
(mag) Time Alt. Az. Time Alt. Az. Time Alt. Az.
29 Mar 5.2 20:43:11 10° NNW 20:46:48 27° W 20:50:19 10° SSW visible
30 Mar 6.0 20:53:32 10° NW 20:56:24 17° W 20:59:07 10° SW visible
31 Mar 6.4 21:04:49 10° WNW 21:05:59 11° W 21:06:53 10° W visible
04 Apr 5.8 20:04:20 10° NW 20:07:42 23° W 20:10:57 10° SW visible
05 Apr 6.3 20:14:53 10° NW 20:17:17 14° W 20:19:29 10° WSW visible
